Location: Alpha Ridge Park
(39.3209°N, 76.9128°W)
Time: 20:54:13
(UTC-04:00)

Vanguard 2 Rocket - Pass Details

Date: 26 May 2019
Orbit: 554 x 3326 km, 32.9° (Epoch: 15 June)

Event Time Altitude Azimuth Distance (km) Brightness Sun altitude
Rises 09:02:34 0° 267° (W) 6,984 10.9 35.7°
Reaches altitude 10° 09:07:46 10° 265° (W) 5,675 10.5 36.7°
Maximum altitude 09:23:20 63° 189° (S) 2,116 9.3 39.7°
Drops below altitude 10° 09:32:06 10° 111° (ESE) 3,357 10.9 41.4°
Sets 09:34:24 0° 108° (ESE) 4,054 11.0 41.8°
